NE1NH Weather Reports


Display with metric or nautical units.
time (UTC)temp
F
wind
direction
speed
MPH
gust
MPH
rain 1hr
in
rain 24hr
in
rain mn
in
humidity
%
barometer
mb
20260506221522 58 76 1.0 6.0 0.02 0.09 0.09 92 1006.5
20260506221010 58 267 1.0 8.0 0.02 0.09 0.09 92 1006.5
20260506220507 58 137 2.0 8.0 0.01 0.08 0.08 92 1006.6
20260506220033 58 165 2.0 7.0 0.01 0.08 0.08 92 1006.7
20260506215510 58 131 1.0 6.0 0.01 0.08 0.08 92 1006.8
20260506215009 58 187 1.0 5.0 0.01 0.08 0.08 92 1006.7
20260506214525 58 168 1.0 10.0 0.02 0.08 0.08 92 1006.7
20260506214009 58 182 2.0 10.0 0.02 0.08 0.08 92 1006.7
20260506213515 58 318 0.0 4.0 0.02 0.08 0.08 92 1006.7
20260506213028 58 238 1.0 6.0 0.01 0.07 0.07 92 1006.8
20260506212510 58 103 2.0 6.0 0.01 0.07 0.07 92 1006.9
20260506212016 58 180 2.0 7.0 0.01 0.07 0.07 92 1007.0
20260506211528 58 350 1.0 9.0 0.01 0.07 0.07 92 1007.0
20260506211010 58 188 3.0 9.0 0.01 0.07 0.07 92 1007.1
20260506210515 59 194 1.0 6.0 0.01 0.07 0.07 92 1007.1
20260506210044 58 193 1.0 7.0 0.01 0.07 0.07 92 1007.1
20260506205509 58 158 1.0 7.0 0.01 0.07 0.07 91 1007.1
20260506205003 58 219 1.0 7.0 0.01 0.07 0.07 91 1007.2
20260506204505 58 141 2.0 7.0 0.00 0.06 0.06 91 1007.3
20260506204004 58 273 2.0 7.0 0.00 0.06 0.06 91 1007.3
20260506203503 58 323 1.0 7.0 0.00 0.06 0.06 91 1007.3
20260506203011 58 165 2.0 7.0 0.00 0.06 0.06 91 1007.3
20260506202503 58 179 1.0 9.0 0.00 0.06 0.06 91 1007.3
20260506202007 58 188 2.0 9.0 0.01 0.06 0.06 91 1007.3
20260506201519 58 225 3.0 9.0 0.02 0.06 0.06 91 1007.5
20260506201004 58 126 1.0 7.0 0.02 0.06 0.06 91 1007.4
20260506200504 58 161 2.0 6.0 0.03 0.06 0.06 91 1007.5
20260506200012 58 223 1.0 5.0 0.03 0.06 0.06 91 1007.6
20260506195504 58 54 1.0 6.0 0.04 0.06 0.06 91 1007.6
20260506195005 58 188 2.0 4.0 0.04 0.06 0.06 91 1007.6
20260506194511 58 100 1.0 4.0 0.05 0.06 0.06 90 1007.6
20260506194007 59 182 2.0 6.0 0.05 0.06 0.06 90 1007.6
20260506193504 59 218 1.0 6.0 0.06 0.06 0.06 90 1007.7
20260506193021 59 174 2.0 5.0 0.06 0.06 0.06 90 1007.7
20260506192503 59 207 2.0 6.0 0.06 0.06 0.06 90 1007.7
20260506192006 59 231 2.0 6.0 0.05 0.05 0.05 89 1007.7
20260506191512 59 263 1.0 6.0 0.04 0.04 0.04 90 1007.6
20260506191004 59 119 0.0 4.0 0.04 0.04 0.04 89 1007.7
20260506190509 60 189 1.0 4.0 0.03 0.03 0.03 88 1007.7
20260506190014 60 187 1.0 5.0 0.03 0.03 0.03 88 1007.8
20260506185505 60 165 1.0 5.0 0.02 0.02 0.02 87 1007.9
20260506185004 61 175 1.0 7.0 0.02 0.02 0.02 86 1007.8
20260506184511 61 300 2.0 7.0 0.01 0.01 0.01 85 1007.8
20260506184005 62 152 0.0 4.0 0.01 0.01 0.01 85 1007.9
20260506183507 62 171 0.0 4.0 0.00 0.00 0.00 84 1008.0
20260506183011 62 179 1.0 4.0 0.00 0.00 0.00 82 1008.1
20260506182508 63 142 1.0 5.0 0.00 0.00 0.00 81 1008.1
20260506182005 63 248 2.0 8.0 0.00 0.00 0.00 79 1008.2
20260506181512 64 210 2.0 8.0 0.00 0.00 0.00 78 1008.3
20260506181004 64 256 1.0 11.0 0.00 0.00 0.00 78 1008.3
20260506180504 64 190 1.0 11.0 0.00 0.00 0.00 77 1008.3
20260506180014 65 277 2.0 8.0 0.00 0.00 0.00 74 1008.4
20260506175505 65 192 2.0 8.0 0.00 0.00 0.00 72 1008.4
20260506175005 66 209 4.0 7.0 0.00 0.00 0.00 70 1008.4
20260506174514 67 197 3.0 8.0 0.00 0.00 0.00 68 1008.5
20260506174002 68 220 3.0 11.0 0.00 0.00 0.00 64 1008.5
20260506173504 68 250 4.0 11.0 0.00 0.00 0.00 62 1008.4
20260506173008 69 203 3.0 8.0 0.00 0.00 0.00 60 1008.3
20260506172502 70 204 3.0 11.0 0.00 0.00 0.00 59 1008.4
20260506172005 70 209 2.0 11.0 0.00 0.00 0.00 60 1008.4
20260506171510 70 232 3.0 14.0 0.00 0.00 0.00 59 1008.3
20260506171008 70 325 2.0 14.0 0.00 0.00 0.00 58 1008.2
20260506170505 71 279 3.0 10.0 0.00 0.00 0.00 58 1008.2
20260506170025 71 262 2.0 10.0 0.00 0.00 0.00 57 1008.3
20260506165505 72 153 2.0 8.0 0.00 0.00 0.00 57 1008.3
20260506165007 72 106 2.0 8.0 0.00 0.00 0.00 56 1008.3
20260506164535 73 225 2.0 12.0 0.00 0.00 0.00 54 1008.4
20260506164005 73 239 5.0 12.0 0.00 0.00 0.00 55 1008.5
20260506163504 72 123 2.0 12.0 0.00 0.00 0.00 59 1008.5
20260506163019 71 211 3.0 12.0 0.00 0.00 0.00 59 1008.7
20260506162508 70 156 2.0 9.0 0.00 0.00 0.00 58 1008.7
20260506162001 70 173 2.0 9.0 0.00 0.00 0.00 58 1008.8
20260506161511 71 269 3.0 8.0 0.00 0.00 0.00 58 1008.8
20260506161005 70 213 3.0 9.0 0.00 0.00 0.00 58 1009.0
20260506160506 70 213 4.0 12.0 0.00 0.00 0.00 58 1009.1
20260506160013 70 294 4.0 12.0 0.00 0.00 0.00 58 1008.9
20260506155504 70 217 4.0 11.0 0.00 0.00 0.00 58 1009.1
20260506155007 70 304 2.0 10.0 0.00 0.00 0.00 60 1009.1
20260506154521 70 187 4.0 8.0 0.00 0.00 0.00 58 1009.2
20260506154008 70 182 1.0 9.0 0.00 0.00 0.00 60 1009.3
20260506153507 70 304 2.0 12.0 0.00 0.00 0.00 60 1009.4
20260506153020 69 140 3.0 12.0 0.00 0.00 0.00 61 1009.4
20260506152505 69 95 2.0 9.0 0.00 0.00 0.00 63 1009.5
20260506152009 69 192 3.0 8.0 0.00 0.00 0.00 62 1009.7
20260506151508 69 231 4.0 8.0 0.00 0.00 0.00 61 1009.7
20260506151001 69 182 2.0 6.0 0.00 0.00 0.00 62 1009.8
20260506150504 70 214 2.0 9.0 0.00 0.00 0.00 62 1009.8
20260506150012 69 210 4.0 9.0 0.00 0.00 0.00 63 1009.8
20260506145505 68 259 3.0 8.0 0.00 0.00 0.00 64 1009.9
20260506145008 68 247 1.0 8.0 0.00 0.00 0.00 65 1010.0
20260506144523 68 249 3.0 7.0 0.00 0.00 0.00 65 1009.9
20260506144008 68 218 1.0 7.0 0.00 0.00 0.00 65 1009.8
20260506143506 68 205 1.0 8.0 0.00 0.00 0.00 66 1010.0
20260506143024 67 98 3.0 8.0 0.00 0.00 0.00 65 1009.9
20260506142510 67 182 2.0 9.0 0.00 0.00 0.00 66 1009.9
20260506142009 67 248 3.0 9.0 0.00 0.00 0.00 67 1009.9
20260506141528 67 146 1.0 7.0 0.00 0.00 0.00 67 1009.8
20260506141011 67 81 2.0 7.0 0.00 0.00 0.00 66 1009.8
20260506140505 67 128 2.0 7.0 0.00 0.00 0.00 67 1009.8
20260506140011 67 138 1.0 4.0 0.00 0.00 0.00 67 1009.7
20260506135506 67 286 1.0 4.0 0.00 0.00 0.00 68 1009.7
20260506135003 67 198 1.0 4.0 0.00 0.00 0.00 70 1009.7
20260506134516 66 275 2.0 7.0 0.00 0.00 0.00 70 1009.8
20260506134006 65 198 2.0 7.0 0.00 0.00 0.00 73 1009.8
20260506133508 65 217 2.0 8.0 0.00 0.00 0.00 73 1009.8
20260506133019 64 137 3.0 8.0 0.00 0.00 0.00 74 1009.8
20260506132510 64 318 1.0 5.0 0.00 0.00 0.00 75 1009.9
20260506132007 63 243 2.0 6.0 0.00 0.00 0.00 75 1010.2
20260506131520 63 190 1.0 6.0 0.00 0.00 0.00 76 1010.3
20260506131006 62 301 1.0 7.0 0.00 0.00 0.00 77 1010.3
20260506130508 62 175 3.0 7.0 0.00 0.00 0.00 77 1010.4
20260506130024 62 267 2.0 7.0 0.00 0.00 0.00 77 1010.4
20260506125509 62 270 1.0 7.0 0.00 0.00 0.00 78 1010.4
20260506125002 62 189 3.0 7.0 0.00 0.00 0.00 77 1010.3
20260506124511 62 198 3.0 8.0 0.00 0.00 0.00 77 1010.2
20260506124006 62 163 1.0 8.0 0.00 0.00 0.00 77 1010.2
20260506123506 62 257 3.0 7.0 0.00 0.00 0.00 76 1010.3
20260506123020 62 205 2.0 4.0 0.00 0.00 0.00 78 1010.3
20260506122506 61 298 1.0 6.0 0.00 0.00 0.00 79 1010.3
20260506122012 61 241 2.0 6.0 0.00 0.00 0.00 79 1010.3
20260506121524 61 254 2.0 6.0 0.00 0.00 0.00 79 1010.6
20260506121009 61 183 2.0 6.0 0.00 0.00 0.00 79 1010.4
20260506120507 61 64 2.0 6.0 0.00 0.00 0.00 80 1010.3
20260506120043 60 291 3.0 6.0 0.00 0.00 0.00 80 1010.3
20260506115512 60 190 2.0 10.0 0.00 0.00 0.00 81 1010.2
20260506115007 60 162 3.0 10.0 0.00 0.00 0.00 81 1010.3
20260506114522 59 197 3.0 10.0 0.00 0.00 0.00 82 1010.3
20260506114005 59 251 2.0 7.0 0.00 0.00 0.00 82 1010.5
20260506113510 59 202 1.0 6.0 0.00 0.00 0.00 83 1010.6
20260506113016 58 276 2.0 7.0 0.00 0.00 0.00 82 1010.6
20260506112507 59 273 1.0 7.0 0.00 0.00 0.00 82 1010.5
20260506112007 59 265 3.0 6.0 0.00 0.00 0.00 82 1010.5
20260506111519 58 186 2.0 0.0 0.00 0.00 0.00 83 1011.0
20260506111007 0 0.0 0.0 0.00 0.00 0.00 1010.8
20260506110507 0 0.0 0.0 0.00 0.00 0.00 1010.7
20260506110025 0 0.0 0.0 0.00 0.00 0.00 1010.6
20260506105508 0 0.0 0.0 0.00 0.00 0.00 1010.7
20260506105006 0 0.0 0.0 0.00 0.00 0.00 1010.5
20260506104536 0 0.0 0.0 0.00 0.00 0.00 1010.6
20260506104011 0 0.0 0.0 0.00 0.00 0.00 1010.5
20260506103508 0 0.0 0.0 0.00 0.00 0.00 1010.4
20260506103036 0 0.0 0.0 0.00 0.00 0.00 1010.3
20260506102516 0 0.0 0.0 0.00 0.00 0.00 1010.3
20260506102010 0 0.0 0.0 0.00 0.00 0.00 1010.3
20260506101525 0 0.0 0.0 0.00 0.00 0.00 1010.3
20260506101009 0 0.0 0.0 0.00 0.00 0.00 1010.3
20260506100511 0 0.0 0.0 0.00 0.00 0.00 1010.3
20260506100027 0 0.0 0.0 0.00 0.00 0.00 1010.3
20260506095508 0 0.0 0.0 0.00 0.00 0.00 1010.3
20260506095009 0 0.0 0.0 0.00 0.00 0.00 1010.3
20260506094525 0 0.0 0.0 0.00 0.00 0.00 1010.2
20260506094012 0 0.0 0.0 0.00 0.00 0.00 1010.2
20260506093510 0 0.0 0.0 0.00 0.00 0.00 1010.2
20260506093024 0 0.0 0.0 0.00 0.00 0.00 1010.1
20260506092508 0 0.0 0.0 0.00 0.00 0.00 1010.0
20260506092009 0 0.0 0.0 0.00 0.00 0.00 1010.2
20260506091528 0 0.0 0.0 0.00 0.00 0.00 1010.2
20260506091007 0 0.0 0.0 0.00 0.00 0.00 1010.2
20260506090507 0 0.0 0.0 0.00 0.00 0.00 1010.3
20260506090028 0 0.0 0.0 0.00 0.00 0.00 1010.2
20260506085510 0 0.0 0.0 0.00 0.00 0.00 1010.2
20260506085008 0 0.0 0.0 0.00 0.00 0.00 1010.3
20260506084603 0 0.0 0.0 0.00 0.00 0.00 1010.2
20260506084012 0 0.0 0.0 0.00 0.00 0.00 1010.4
20260506083508 0 0.0 0.0 0.00 0.00 0.00 1010.3
20260506083017 0 0.0 0.0 0.00 0.00 0.00 1010.3
20260506082507 0 0.0 0.0 0.00 0.00 0.00 1010.3
20260506082011 0 0.0 0.0 0.00 0.00 0.00 1010.4
20260506081536 0 2.0 6.0 0.00 0.00 0.00 1010.4
20260506081008 57 207 2.0 6.0 0.00 0.00 0.00 81 1010.4
20260506080504 57 200 3.0 9.0 0.00 0.00 0.00 81 1010.2
20260506073505 58 191 3.0 9.0 0.00 0.00 0.00 79 1010.3
20260506073023 58 195 4.0 9.0 0.00 0.00 0.00 79 1010.4
20260506072502 58 184 3.0 8.0 0.00 0.00 0.00 79 1010.5
20260506072001 58 284 2.0 6.0 0.00 0.00 0.00 78 1010.3
20260506071511 59 205 3.0 7.0 0.00 0.00 0.00 78 1010.3
20260506071004 59 192 4.0 10.0 0.00 0.00 0.00 78 1010.3
20260506070504 59 244 3.0 10.0 0.00 0.00 0.00 78 1010.2
20260506062508 60 290 2.0 6.0 0.00 0.00 0.00 75 1009.9
20260506062010 60 183 2.0 6.0 0.00 0.00 0.00 75 1010.0
20260506061508 60 236 3.0 7.0 0.00 0.00 0.00 75 1010.0
20260506061004 60 230 3.0 7.0 0.00 0.00 0.00 74 1010.0
20260506060504 60 201 3.0 7.0 0.00 0.00 0.00 74 1010.0
20260506051010 61 232 3.0 9.0 0.00 0.00 0.00 71 1010.3
20260506050507 61 204 2.0 8.0 0.00 0.00 0.00 71 1010.3
20260506045005 61 242 3.0 8.0 0.00 0.00 0.00 70 1010.6
20260506044518 61 192 4.0 9.0 0.00 0.00 0.00 70 1010.4
20260506044006 61 263 3.0 10.0 0.00 0.00 0.00 69 1010.5
20260506043508 61 253 4.0 10.0 0.00 0.00 0.00 69 1010.6
20260506043020 61 205 3.0 12.0 0.00 0.00 0.00 69 1010.7
20260506042508 61 248 2.0 12.0 0.00 0.00 0.00 68 1010.7
20260506042008 61 227 4.0 10.0 0.00 0.00 0.00 68 1010.5
20260506041523 61 247 4.0 11.0 0.00 0.00 0.00 68 1010.7
20260506041009 61 234 3.0 11.0 0.00 0.00 0.00 68 1010.6
20260506040510 61 302 4.0 11.0 0.00 0.00 0.00 68 1010.6
20260506040034 61 182 3.0 10.0 0.00 0.00 0.00 68 1010.7
20260506035508 61 221 4.0 10.0 0.00 0.00 0.00 68 1010.7
20260506035005 61 236 2.0 15.0 0.00 0.00 0.00 68 1010.8
20260506034512 61 227 3.0 15.0 0.00 0.00 0.00 68 1010.8
20260506034004 61 214 3.0 10.0 0.00 0.00 0.00 68 1010.7
20260506033504 61 190 4.0 12.0 0.00 0.00 0.00 68 1010.5
20260506033017 61 184 3.0 12.0 0.00 0.00 0.00 68 1010.6
20260506032504 61 188 4.0 12.0 0.00 0.00 0.00 68 1010.6
20260506032010 60 237 4.0 12.0 0.00 0.00 0.00 69 1010.4
20260506031520 60 236 2.0 12.0 0.00 0.00 0.00 69 1010.5
20260506031008 60 224 3.0 8.0 0.00 0.00 0.00 69 1010.5
20260506030512 60 307 2.0 8.0 0.00 0.00 0.00 69 1010.5
20260506030023 60 244 3.0 8.0 0.00 0.00 0.00 68 1010.5
20260506025511 60 224 3.0 8.0 0.00 0.00 0.00 69 1010.5
20260506025010 60 229 3.0 8.0 0.00 0.00 0.00 68 1010.6
20260506024531 60 191 3.0 10.0 0.00 0.00 0.00 68 1010.4
20260506024015 60 205 3.0 10.0 0.00 0.00 0.00 68 1010.5
20260506023504 60 226 4.0 8.0 0.00 0.00 0.00 68 1010.5
20260506023018 60 189 3.0 7.0 0.00 0.00 0.00 68 1010.5
20260506022506 60 215 3.0 7.0 0.00 0.00 0.00 68 1010.5
20260506022008 60 192 3.0 7.0 0.00 0.00 0.00 68 1010.4
20260506021531 60 284 3.0 8.0 0.00 0.00 0.00 68 1010.4
20260506021011 60 232 3.0 8.0 0.00 0.00 0.00 68 1010.6
20260506020508 60 199 4.0 7.0 0.00 0.00 0.00 68 1010.4
20260506020027 60 208 2.0 12.0 0.00 0.00 0.00 67 1010.3
20260506015507 61 250 4.0 12.0 0.00 0.00 0.00 67 1010.4
20260506015007 61 269 3.0 12.0 0.00 0.00 0.00 66 1010.4
20260506014525 61 167 2.0 10.0 0.00 0.00 0.00 66 1010.2
20260506014008 61 178 4.0 10.0 0.00 0.00 0.00 65 1010.4
20260506013511 61 185 3.0 7.0 0.00 0.00 0.00 65 1010.2
20260506013031 61 242 3.0 7.0 0.00 0.00 0.00 64 1010.2
20260506012503 62 184 3.0 8.0 0.00 0.00 0.00 64 1010.0
20260506012008 62 202 3.0 9.0 0.00 0.00 0.00 64 1010.0
20260506011516 62 204 2.0 13.0 0.00 0.00 0.00 64 1010.1
20260506011004 62 61 4.0 13.0 0.00 0.00 0.00 64 1010.0
20260506010507 62 205 3.0 12.0 0.00 0.00 0.00 64 1009.9
20260506010020 62 209 3.0 9.0 0.00 0.00 0.00 64 1009.9
20260506005508 62 146 3.0 7.0 0.00 0.00 0.00 64 1009.8
20260506005007 62 234 2.0 6.0 0.00 0.00 0.00 64 1009.9
20260506004527 62 257 2.0 12.0 0.00 0.00 0.00 63 1009.8
20260506004013 63 206 3.0 10.0 0.00 0.00 0.00 63 1009.8
20260506003512 63 236 3.0 9.0 0.00 0.00 0.00 63 1009.6
20260506003026 63 165 3.0 7.0 0.00 0.00 0.00 62 1009.7
20260506002511 63 191 2.0 9.0 0.00 0.00 0.00 62 1009.6
20260506002010 64 246 3.0 9.0 0.00 0.00 0.00 61 1009.5
20260506001513 64 190 2.0 6.0 0.00 0.00 0.00 60 1009.4
20260506001004 64 190 2.0 9.0 0.00 0.00 0.00 60 1009.3
20260506000507 65 239 3.0 9.0 0.00 0.00 0.00 59 1009.3
20260506000025 65 242 3.0 6.0 0.00 0.00 0.00 58 1009.1
20260505235508 65 247 3.0 9.0 0.00 0.00 0.00 58 1009.0
20260505235006 66 228 3.0 8.0 0.00 0.00 0.00 58 1009.1
20260505234525 66 263 2.0 11.0 0.00 0.00 0.00 57 1008.9
20260505234008 66 261 2.0 11.0 0.00 0.00 0.00 57 1008.9
20260505233514 67 257 3.0 11.0 0.00 0.00 0.00 56 1008.9
20260505233024 67 225 3.0 7.0 0.00 0.00 0.00 55 1008.8
20260505232512 67 191 3.0 7.0 0.00 0.00 0.00 54 1008.6
20260505232013 68 263 2.0 6.0 0.00 0.00 0.00 53 1008.6
20260505231544 68 215 2.0 7.0 0.00 0.00 0.00 53 1008.6
20260505231011 69 241 4.0 9.0 0.00 0.00 0.00 52 1008.5
20260505230507 69 229 2.0 16.0 0.00 0.00 0.00 51 1008.5
20260505230024 70 162 4.0 16.0 0.00 0.00 0.00 50 1008.3
20260505225510 70 156 1.0 9.0 0.00 0.00 0.00 51 1008.2
20260505225008 70 194 2.0 7.0 0.00 0.00 0.00 50 1008.2
20260505224522 71 203 3.0 8.0 0.00 0.00 0.00 48 1008.2
20260505224007 71 221 3.0 8.0 0.00 0.00 0.00 48 1008.1
20260505223510 71 250 2.0 9.0 0.00 0.00 0.00 48 1008.1
20260505223026 71 83 3.0 12.0 0.00 0.00 0.00 48 1007.8
20260505222512 71 28 3.0 12.0 0.00 0.00 0.00 47 1007.8